User: anonymous   Login
Location: Fort Wayne
(41.1310°N, 85.1290°W)
Time: 08:41:38
(UTC-04:00)
Language:

SR - Orbit

View from above orbital plane
View from above orbital plane
View from above satellite
View from above satellite

Ground track
Ground track

The orbit data is extracted from the following two-line orbital elements,

1 00046U 60007B   15180.22625237  .00000089  00000-0  41301-4 0  9997
2 00046 066.6912 269.4411 0206806 042.2600 319.4235 14.48548416876109
Epoch (UTC): 29 June 2015 05:25:48
Eccentricity: 0.0206806
inclination: 66.6912°
perigee height: 583 km
apogee height: 877 km
right ascension of ascending node: 269.4411°
argument of perigee: 42.2600°
revolutions per day: 14.48548416
mean anomaly at epoch: 319.4235°
orbit number at epoch: 87610

The dashed part of the orbit path shows where the satellite is in the earth's shadow,  

DLR